Regional Weather Roundup
Issued by NWS

Home | Current Version | Previous Version | Graphics & Text | Print | Product List | Glossary On
Versions: 1 2 3 4 5 6 7 8 9 10 11 12 13 14 15 16 17 18 19 20 21 22 23 24 25 26 27 28 29 30 31 32 33 34 35 36 37 38 39 40 41 42 43 44 45 46 47 48 49 50
000
ASUS43 KDMX 221606
RWRIA

WEATHER ROUNDUP FOR IOWA
NATIONAL WEATHER SERVICE DES MOINES IA
1000 AM CST THU FEB 22 2018

NOTE: "FAIR" INDICATES FEW OR NO CLOUDS BELOW 12,000 FEET WITH NO
SIGNIFICANT WEATHER AND/OR OBSTRUCTIONS TO VISIBILITY.

* - THESE STATIONS ARE NOT NWS STATIONS...THUS NOT UNDER NWS
QUALITY CONTROL.  THEY ALSO DO NOT REPORT WEATHER SUCH
AS PRECIPITATION OR FOG.

IAZ001>003-012>014-020>022-031>034-043>046-221700-
   NORTHWEST IOWA

CITY           SKY/WX    TMP DP  RH WIND       PRES   REMARKS
CARROLL *      CLOUDY    25  21  86 E16       30.41F WCI  12
CHEROKEE *     CLOUDY    25  21  85 E7        30.42F WCI  17
DENISON *      LGT SNOW  25  21  86 E12G21    30.41F WCI  14
LE MARS *      CLOUDY    25  19  80 E8        30.41F WCI  16
ORANGE CITY *  CLOUDY    25  21  86 E8        30.40F WCI  16
SHELDON *      CLOUDY    21  21 100 E8        30.41F WCI  12
SIOUX CITY     CLOUDY    23  19  85 E8        30.41F WCI  14
SPENCER        MIX PCPN  24  20  84 E10       30.44F FOG     WCI  14
STORM LAKE *   MIX PCPN  23  19  86 E14       30.40F WCI  11
$$

IAZ055>058-069>071-079>083-090>094-221700-
   SOUTHWEST IOWA

CITY           SKY/WX    TMP DP  RH WIND       PRES   REMARKS
ATLANTIC *     CLOUDY    25  23  93 E12G20    30.39F FOG     WCI  14
AUDUBON *      LGT SNOW  27  21  80 E15       30.39F WCI  15
CLARINDA *     CLOUDY    27  27 100 E8        30.42F FOG     WCI  18
COUNCIL BLFS * CLOUDY    25  25 100 SE14      30.39R WCI  13
CRESTON *      CLOUDY    25  23  93 E15       30.39F FOG     WCI  12
HARLAN  *      CLOUDY    27  27 100 E15G21    30.42F WCI  15
LAMONI         CLOUDY    27  25  92 E8        30.39F FOG     WCI  19
RED OAK *      FLURRIES  27  23  86 E13       30.40S WCI  16
SHENANDOAH *   CLOUDY    27  25  93 E10       30.40S FOG     WCI  17
$$

IAZ047>049-059>061-072>074-084-221700-
   CENTRAL IOWA

CITY           SKY/WX    TMP DP  RH WIND       PRES   REMARKS
AMES           CLOUDY    27  18  69 E7        30.46S WCI  19
ANKENY *       CLOUDY    27  23  86 E12       30.46S WCI  16
BOONE *        CLOUDY    27  19  74 E13       30.43R WCI  16
CHARITON *     PTSUNNY   27  27 100 E13       30.42S FOG     WCI  16
DES MOINES     FLURRIES  26  21  81 E12       30.44S WCI  16
GRINNELL*      FLURRIES  28  22  78 E14       30.45F WCI  17
KNOXVILLE *    CLOUDY    27  23  86 E12G18    30.43R WCI  16
MARSHALLTOWN   CLOUDY    28  19  69 E17       30.45F WCI  16
NEWTON *       CLOUDY    27  23  86 E15       30.44S WCI  15
PELLA *        CLOUDY    28  22  76 E9G16     30.46F WCI  20
PERRY *        CLOUDY    27  23  86 E12       30.44F FOG     WCI  16
$$

IAZ004>006-015-016-023>025-035-036-221700-
   NORTH CENTRAL IOWA

CITY           SKY/WX    TMP DP  RH WIND       PRES   REMARKS
ALGONA *       MOSUNNY   25 N/A N/A NE7       30.46F WCI  17
CLARION *      CLOUDY    25  25 100 E13       30.46S WCI  13
ESTHERVILLE    CLOUDY    19  17  92 NE8       30.46F WCI   9
FORT DODGE *   CLOUDY    25  19  78 E12       30.45F WCI  14
MASON CITY     CLOUDY    25  18  74 E8        30.48F WCI  16
FOREST CITY *  CLOUDY    27  21  80 E8        30.48S WCI  18
WEBSTER CITY * CLOUDY    27  18  69 E17       30.41F WCI  14
IOWA FALLS *   CLOUDY    28  18  65 E15G21    30.46F WCI  17
$$

IAZ007>011-017>019-026>030-037>042-050>054-066-221700-
   NORTHEAST IOWA

CITY           SKY/WX    TMP DP  RH WIND       PRES   REMARKS
CEDAR RAPIDS   CLOUDY    30  19  63 E16       30.47F WCI  19
CHARLES CITY * CLOUDY    27  21  80 E9        30.49F WCI  17
CLINTON *      CLOUDY    31  25  78 NE17      30.51F WCI  19
DECORAH *      CLOUDY    25  18  74 E9        30.51F WCI  15
DUBUQUE        CLOUDY    27  18  69 NE13      30.51F WCI  16
MONTICELLO *   CLOUDY    28  19  69 E10       30.51F WCI  19
OELWEIN *      FAIR      27  19  74 E18       30.48F WCI  13
WATERLOO       CLOUDY    27  17  66 E14       30.47F WCI  16
$$

IAZ064-065-067-068-078-221700-
   EAST CENTRAL IOWA

CITY           SKY/WX    TMP DP  RH WIND       PRES   REMARKS
DAVENPORT      CLOUDY    32  24  72 E14       30.51F WCI  22
IOWA CITY      CLOUDY    32  21  64 NE12G18   30.50F WCI  23
MT. PLEASANT * CLOUDY    30  28  93 NE13      30.46S FOG     WCI  20
MUSCATINE *    CLOUDY    34  25  69 E12       30.50F WCI  25
QUAD CITIES    CLOUDY    33  25  72 NE14      30.49S WCI  23
$$

IAZ062-063-075>077-085>089-095>099-221700-
   SOUTHEAST IOWA

CITY           SKY/WX    TMP DP  RH WIND       PRES   REMARKS
BURLINGTON     CLOUDY    31  27  85 NE12      30.45F WCI  22
FAIRFIELD *    CLOUDY    30  27  86 E13       30.45F FOG     WCI  20
FORT MADISON * CLOUDY    30  28  93 NE7       30.45F FOG     WCI  23
KEOKUK *       LGT RAIN  32  30  93 NE8G14    30.44F WCI  25
OSKALOOSA *    CLOUDY    29  25  85 E15       30.44F WCI  17
OTTUMWA        CLOUDY    29  25  85 E14       30.44F FOG     WCI  18
WASHINGTON *   CLOUDY    32  27  80 E16       30.47F WCI  21
$$

ABBREVIATIONS USED IN REMARKS
   TC - TEMPERATURES IN CELSIUS
  WCI - WIND CHILL INDEX
   HX - HEAT INDEX
  VSB - VISIBILITY
$$





USA.gov is the U.S. government's official web portal to all federal, state and local government web resources and services.